Location: Goettingen
(51.5300°N, 9.9433°E)
Time: 20:57:30
(UTC+02:00)

ISS - Visible Passes

Search period start: 24 September 2022 00:00
Search period end: 04 October 2022 00:00
Orbit: 414 x 417 km, 51.6° (Epoch: 24 September)

Date Brightness Start Highest point End Pass type
(mag) Time Alt. Az. Time Alt. Az. Time Alt. Az.
24 Sep -3.7 19:45:14 10° WSW 19:48:36 83° S 19:51:58 10° E visible
24 Sep -3.7 21:21:59 10° W 21:25:10 77° WSW 21:25:10 77° WSW visible
25 Sep -3.8 20:33:21 10° W 20:36:44 88° N 20:38:21 28° E visible
25 Sep -1.1 22:10:07 10° W 22:11:13 19° W 22:11:13 19° W visible
26 Sep -3.7 19:44:41 10° W 19:48:04 86° N 19:51:26 10° E visible
26 Sep -3.3 21:21:28 10° W 21:24:23 54° SW 21:24:23 54° SW visible
27 Sep -3.8 20:32:47 10° W 20:36:08 75° SSW 20:37:33 32° ESE visible
27 Sep -0.8 22:09:44 10° W 22:10:25 14° W 22:10:25 14° W visible
28 Sep -3.7 19:44:06 10° W 19:47:28 86° S 19:50:43 11° E visible
28 Sep -2.5 21:20:55 10° W 21:23:36 33° SW 21:23:36 33° SW visible
29 Sep -3.1 20:32:10 10° W 20:35:24 47° SSW 20:36:48 28° SE visible
30 Sep -3.4 19:43:25 10° W 19:46:45 62° SSW 19:50:02 10° ESE visible
30 Sep -1.6 21:20:37 10° W 21:22:55 19° SW 21:22:55 19° SW visible
01 Oct -2.0 20:31:37 10° W 20:34:29 26° SSW 20:36:12 17° SSE visible
02 Oct -2.5 19:42:44 10° W 19:45:52 36° SSW 19:48:59 10° SE visible
03 Oct -1.0 20:31:34 10° WSW 20:33:21 14° SW 20:35:07 10° S visible
